User: anonymous   Login
Location: Columbia
(38.9520°N, 92.3340°W)
Time: 08:48:50
(UTC-05:00)
Language:

Meteor 1-4 Rocket - Orbit

View from above orbital plane
View from above orbital plane
View from above satellite
View from above satellite

Ground track
Ground track

The orbit data is extracted from the following two-line orbital elements,

1 04394U 70037B   16270.52586071  .00001691  00000-0  60679-4 0  9996
2 04394  81.2434 324.2290 0040577 304.7447  54.9969 15.27315246524513
Epoch (UTC): 26 September 2016 12:37:14
Eccentricity: 0.0040577
inclination: 81.2434°
perigee height: 456 km
apogee height: 511 km
right ascension of ascending node: 324.2290°
argument of perigee: 304.7447°
revolutions per day: 15.27315246
mean anomaly at epoch: 54.9969°
orbit number at epoch: 52451

The dashed part of the orbit path shows where the satellite is in the earth's shadow,  

DLR